EW8578 Stord NO current weather conditions

sailwx.info

Wind from 347 at 4 knots gusting 9

Air temperature 12.2° C
Dewpoint 7.7° C

Last reported at 2020-Jul-10 22:00 UTC.
Time now 2020-Jul-10 23:00 UTC

Location: N 59°54' E 005°46'.
View on Google Maps.

See reports from other nearby stations

  
Tides and Currents Weather Stations Pressure Air Temp Water Temp Dewpoint Dewpoint Depression Visibility Wind Speed Wind Dir Waves Ship Positions
date/time (UTC)wind fromknots sea level pressurealtimeterstation pressurevisibilityair tempwater tempwave heightnotes
2020-Jul-10 22:00 347 4 gusting 9 12.2
2020-Jul-10 21:55 344 5 gusting 10 12.2
2020-Jul-10 21:50 349 6 gusting 10 12.2
2020-Jul-10 21:45 350 5 gusting 9 12.2
2020-Jul-10 21:35 313 5 gusting 7 12.2
2020-Jul-10 21:30 330 2 gusting 5 12.2
2020-Jul-10 21:25 333 3 gusting 5 12.2
2020-Jul-10 21:20 355 12.2
2020-Jul-10 21:10 337 0 gusting 6 12.2
2020-Jul-10 21:05 355 1 gusting 6 12.2
2020-Jul-10 21:00 339 1 gusting 7 12.2
2020-Jul-10 20:55 349 2 gusting 8 12.2
2020-Jul-10 20:45 355 5 gusting 6 12.2
2020-Jul-10 20:35 360 1 gusting 9 12.2
2020-Jul-10 20:30 351 4 gusting 7 12.8
2020-Jul-10 20:25 339 3 gusting 6 12.2
2020-Jul-10 20:20 325 12.8
2020-Jul-10 20:15 327 1 gusting 6 12.2
2020-Jul-10 20:10 355 1 gusting 6 12.2
2020-Jul-10 20:05 077 0 gusting 5 12.2
2020-Jul-10 20:00 355 2 gusting 8 12.2
2020-Jul-10 19:55 022 4 gusting 9 12.8
2020-Jul-10 19:50 030 4 gusting 9 12.8
2020-Jul-10 19:35 005 0 gusting 10 12.8
2020-Jul-10 19:31 313 5 gusting 10 13.3
2020-Jul-10 19:25 355 3 gusting 6 13.3
2020-Jul-10 19:20 348 1 gusting 7 13.9
2020-Jul-10 19:15 005 3 gusting 7 13.9
2020-Jul-10 19:10 355 2 gusting 8 13.9
2020-Jul-10 19:05 355 3 gusting 8 13.3
2020-Jul-10 19:00 350 2 gusting 7 13.3
2020-Jul-10 18:55 030 1 gusting 6 13.3
2020-Jul-10 18:50 059 1 gusting 5 13.3
2020-Jul-10 18:45 051 2 gusting 7 13.3
2020-Jul-10 18:35 360 1 gusting 10 13.9
2020-Jul-10 18:30 355 4 gusting 10 14.4
2020-Jul-10 18:25 349 1 gusting 9 13.9
2020-Jul-10 18:20 347 4 gusting 9 13.9
2020-Jul-10 18:10 019 3 gusting 10 14.4
2020-Jul-10 18:05 360 4 gusting 11 14.4
2020-Jul-10 18:00 010 3 gusting 11 14.4
2020-Jul-10 17:55 009 3 gusting 8 13.9
2020-Jul-10 17:50 355 3 gusting 10 13.9
2020-Jul-10 17:45 005 5 gusting 10 13.9
2020-Jul-10 17:35 327 5 gusting 11 13.9
2020-Jul-10 17:32 360 2 gusting 11 13.9
2020-Jul-10 17:25 348 6 gusting 11 13.9
2020-Jul-10 17:20 355 4 gusting 10 13.9
2020-Jul-10 17:15 330 4 gusting 10 13.9
2020-Jul-10 17:10 355 7 gusting 10 14.4
2020-Jul-10 17:05 304 4 gusting 13 14.4
2020-Jul-10 17:00 360 8 gusting 13 14.4
2020-Jul-10 16:55 016 6 gusting 12 14.4
2020-Jul-10 16:50 005 6 gusting 12 14.4
2020-Jul-10 16:45 355 2 gusting 13 14.4
2020-Jul-10 16:40 360 6 gusting 15 15.0
2020-Jul-10 16:35 015 6 gusting 15 15.0
2020-Jul-10 16:31 338 6 gusting 15 15.0
2020-Jul-10 16:25 005 8 gusting 13 15.0
2020-Jul-10 16:20 337 8 gusting 15 15.0
2020-Jul-10 16:15 323 10 gusting 15 15.0
2020-Jul-10 16:10 338 8 gusting 15 15.0
2020-Jul-10 16:05 350 6 gusting 14 15.0
2020-Jul-10 16:00 350 8 gusting 14 15.0
2020-Jul-10 15:55 343 8 gusting 12 15.0
2020-Jul-10 15:45 005 10 gusting 14 14.4
2020-Jul-10 15:40 015 11 gusting 14 15.0
2020-Jul-10 15:35 333 10 gusting 14 15.0
2020-Jul-10 15:31 340 7 gusting 13 15.0
2020-Jul-10 15:25 350 7 gusting 13 15.0
2020-Jul-10 15:20 350 10 gusting 13 15.6
2020-Jul-10 15:15 351 6 gusting 13 15.6
2020-Jul-10 15:10 329 6 gusting 12 15.0
2020-Jul-10 15:05 332 7 gusting 12 15.0
2020-Jul-10 15:00 355 8 gusting 13 15.6
2020-Jul-10 14:55 360 7 gusting 13 15.6
2020-Jul-10 14:50 336 8 gusting 12 15.6
2020-Jul-10 14:45 340 6 gusting 13 15.6
2020-Jul-10 14:40 342 9 gusting 14 15.6
2020-Jul-10 14:30 347 6 gusting 13 15.6
2020-Jul-10 14:25 355 8 gusting 13 15.6
2020-Jul-10 14:20 335 7 gusting 13 15.6
2020-Jul-10 14:15 337 7 gusting 12 16.1
2020-Jul-10 14:10 346 6 gusting 10 16.1
2020-Jul-10 14:00 321 6 gusting 11 16.1
2020-Jul-10 13:55 355 6 gusting 11 16.1
2020-Jul-10 13:45 355 6 gusting 13 16.1
2020-Jul-10 13:40 343 5 gusting 11 15.6
2020-Jul-10 13:35 355 5 gusting 11 16.1
2020-Jul-10 13:30 355 7 gusting 12 16.1
2020-Jul-10 13:25 338 8 gusting 12 16.1
2020-Jul-10 13:20 355 7 gusting 12 16.1
2020-Jul-10 13:10 306 4 gusting 12 16.1
2020-Jul-10 13:05 350 8 gusting 12 16.1
2020-Jul-10 12:55 355 5 gusting 10 15.6
2020-Jul-10 12:50 360 5 gusting 9 15.6
2020-Jul-10 12:45 350 5 gusting 8 16.1
2020-Jul-10 12:40 360 3 gusting 10 16.1
2020-Jul-10 12:35 360 2 gusting 10 16.1
2020-Jul-10 12:25 355 6 gusting 10 15.6
2020-Jul-10 12:20 317 6 gusting 8 15.6
2020-Jul-10 12:10 355 2 gusting 7 15.6
2020-Jul-10 12:05 005 3 gusting 7 16.1
2020-Jul-10 12:00 018 2 gusting 5 16.1
2020-Jul-10 11:55 005 1 gusting 7 16.7
2020-Jul-10 11:50 355 1 gusting 7 16.7
2020-Jul-10 11:45 017 16.7
2020-Jul-10 11:40 020 1 gusting 5 16.7
2020-Jul-10 11:30 028 2 gusting 6 16.7
2020-Jul-10 11:25 005 3 gusting 6 16.7
2020-Jul-10 11:20 015 1 gusting 4 16.7
2020-Jul-10 11:15 013 1 gusting 4 16.7
2020-Jul-10 11:10 005 1 gusting 4 16.7
2020-Jul-10 11:00 360 0 gusting 3 16.7
2020-Jul-10 10:55 005 0 gusting 4 16.1
2020-Jul-10 10:50 005 1 gusting 4 16.1
2020-Jul-10 10:45 009 0 gusting 3 16.1
2020-Jul-10 10:40 360 1 gusting 5 16.1
2020-Jul-10 10:35 005 1 gusting 5 16.1
2020-Jul-10 10:25 355 0 gusting 2 16.1
2020-Jul-10 10:20 016 0 gusting 2 16.1
2020-Jul-10 10:15 013 0 gusting 2 16.1
2020-Jul-10 10:05 011 15.6
2020-Jul-10 10:03 019 0 gusting 4 15.6
2020-Jul-10 09:55 005 0 gusting 3 15.0
2020-Jul-10 09:51 350 1 gusting 5 15.0
2020-Jul-10 09:46 355 3 gusting 5 15.0
2020-Jul-10 09:41 355 1 gusting 4 15.0
2020-Jul-10 09:31 360 0 gusting 4 14.4
2020-Jul-10 09:25 355 1 gusting 4 14.4
2020-Jul-10 09:21 355 0 gusting 4 14.4
2020-Jul-10 09:17 355 1 gusting 4 14.4
2020-Jul-10 09:11 355 1 gusting 4 14.4
2020-Jul-10 09:05 346 1 gusting 5 14.4
2020-Jul-10 09:01 013 1 gusting 6 13.9
2020-Jul-10 08:51 355 1 gusting 6 13.9
2020-Jul-10 08:45 350 3 gusting 5 13.9
2020-Jul-10 08:40 360 2 gusting 7 13.3
2020-Jul-10 08:31 005 6 gusting 7 13.3
2020-Jul-10 08:25 355 2 gusting 6 13.3
2020-Jul-10 08:20 351 4 gusting 7 13.3
2020-Jul-10 08:16 355 4 gusting 7 13.3
2020-Jul-10 08:10 347 4 gusting 8 13.3
2020-Jul-10 08:05 350 4 gusting 8 13.3
2020-Jul-10 08:01 348 5 gusting 7 13.3
2020-Jul-10 07:55 355 5 gusting 7 13.3
2020-Jul-10 07:50 009 2 gusting 7 13.3
2020-Jul-10 07:46 346 3 gusting 6 13.3
2020-Jul-10 07:40 019 0 gusting 5 13.3
2020-Jul-10 07:32 360 1 gusting 5 12.8
2020-Jul-10 07:25 014 2 gusting 5 12.8
2020-Jul-10 07:20 046 0 gusting 5 12.2
2020-Jul-10 07:16 038 1 gusting 5 12.2
2020-Jul-10 07:10 049 1 gusting 5 12.2
2020-Jul-10 07:05 026 1 gusting 5 12.2
2020-Jul-10 07:01 041 1 gusting 5 11.7
2020-Jul-10 06:55 025 1 gusting 5 11.1
2020-Jul-10 06:50 016 2 gusting 5 11.1
2020-Jul-10 06:46 028 1 gusting 4 11.1
2020-Jul-10 06:40 044 1 gusting 5 10.6
2020-Jul-10 06:31 034 1 gusting 5 10.6
2020-Jul-10 06:26 064 1 gusting 4 10.6
2020-Jul-10 06:20 341 1 gusting 4 10.6
2020-Jul-10 06:16 035 1 gusting 4 10.6
2020-Jul-10 06:10 035 0 gusting 4 10.6
2020-Jul-10 06:05 032 0 gusting 4 10.6
2020-Jul-10 06:01 047 1 gusting 3 10.6
2020-Jul-10 05:55 046 1 gusting 3 10.6
2020-Jul-10 05:51 030 0 gusting 4 10.6
2020-Jul-10 05:45 017 0 gusting 3 10.6
2020-Jul-10 05:40 038 0 gusting 2 10.6
2020-Jul-10 05:30 040 0 gusting 3 10.6
2020-Jul-10 05:25 038 10.6
2020-Jul-10 05:20 054 10.6
2020-Jul-10 05:16 034 0 gusting 3 10.6
2020-Jul-10 05:10 066 10.6
2020-Jul-10 05:05 067 10.6
2020-Jul-10 05:01 069 1 gusting 5 10.6
2020-Jul-10 04:56 062 1 gusting 5 10.6
2020-Jul-10 04:50 074 2 gusting 5 10.6
2020-Jul-10 04:45 036 10.0
2020-Jul-10 04:40 036 10.0
2020-Jul-10 04:31 052 10.6
2020-Jul-10 04:25 052 10.6
2020-Jul-10 04:20 052 10.6
2020-Jul-10 04:16 051 0 gusting 5 10.6
2020-Jul-10 04:10 056 1 gusting 4 10.6
2020-Jul-10 04:05 061 1 gusting 5 10.0
2020-Jul-10 04:01 059 0 gusting 5 10.0
2020-Jul-10 03:55 047 0 gusting 2 10.0
2020-Jul-10 03:50 057 0 gusting 2 10.6
2020-Jul-10 03:45 059 0 gusting 2 10.6
2020-Jul-10 03:40 060 10.6
2020-Jul-10 03:30 040 1 gusting 4 10.6
2020-Jul-10 03:25 063 10.6
2020-Jul-10 03:20 059 0 gusting 6 10.6
2020-Jul-10 03:15 043 1 gusting 4 10.6
2020-Jul-10 03:10 050 2 gusting 4 10.6
2020-Jul-10 03:05 068 1 gusting 4 10.6
2020-Jul-10 03:00 047 1 gusting 5 10.6
2020-Jul-10 02:55 040 2 gusting 5 10.6
2020-Jul-10 02:50 040 2 gusting 5 10.6
2020-Jul-10 02:46 068 2 gusting 5 10.6
2020-Jul-10 02:40 058 3 gusting 7 10.6
2020-Jul-10 02:31 088 3 gusting 6 10.0
2020-Jul-10 02:25 036 0 gusting 6 10.0
2020-Jul-10 02:20 054 0 gusting 4 10.0
2020-Jul-10 02:15 030 2 gusting 4 10.0
2020-Jul-10 02:10 088 10.0
2020-Jul-10 02:05 056 10.6
2020-Jul-10 02:00 056 10.6
2020-Jul-10 01:55 056 10.6
2020-Jul-10 01:50 059 10.6
2020-Jul-10 01:46 059 10.6
2020-Jul-10 01:40 059 10.6
2020-Jul-10 01:31 059 0 gusting 2 10.6
2020-Jul-10 01:25 058 1 gusting 3 10.6
2020-Jul-10 01:20 070 1 gusting 3 10.6
2020-Jul-10 01:10 082 10.6
2020-Jul-10 01:05 069 10.6
2020-Jul-10 01:00 069 10.6
2020-Jul-10 00:55 069 10.6
2020-Jul-10 00:50 065 10.6
2020-Jul-10 00:40 061 1 gusting 5 10.6
2020-Jul-10 00:30 082 2 gusting 6 10.6
2020-Jul-10 00:25 075 2 gusting 5 10.6
2020-Jul-10 00:20 066 1 gusting 3 10.6
2020-Jul-10 00:15 101 1 gusting 4 10.6
2020-Jul-10 00:10 041 0 gusting 4 10.6
2020-Jul-10 00:05 086 1 gusting 3 10.6
2020-Jul-10 00:00 084 1 gusting 3 10.6
2020-Jul-09 23:55 080 1 gusting 5 10.6
2020-Jul-09 23:50 106 0 gusting 5 10.6
2020-Jul-09 23:45 057 10.6
2020-Jul-09 23:40 038 10.6
2020-Jul-09 23:30 037 11.1
2020-Jul-09 23:25 037 0 gusting 3 11.1
2020-Jul-09 23:15 092 11.1
2020-Jul-09 23:10 051 11.1
2020-Jul-09 23:05 075 1 gusting 3 11.1
2020-Jul-09 23:00 078 1 gusting 3 11.1
2020-Jul-09 22:55 071 0 gusting 2 11.1
2020-Jul-09 22:50 068 11.1
2020-Jul-09 22:45 067 0 gusting 2 11.1
2020-Jul-09 22:40 053 11.7
2020-Jul-09 22:26 043 12.2
2020-Jul-09 22:21 018 0 gusting 6 12.2
2020-Jul-09 22:16 355 2 gusting 6 12.2
2020-Jul-09 22:10 355 3 gusting 7 12.2
2020-Jul-09 22:05 360 3 gusting 7 12.2
2020-Jul-09 22:01 351 4 gusting 7 12.2
2020-Jul-09 21:55 321 4 gusting 6 12.2
2020-Jul-09 21:50 334 3 gusting 8 12.8
2020-Jul-09 21:47 315 4 gusting 8 12.8
2020-Jul-09 21:40 337 3 gusting 7 12.8
2020-Jul-09 21:32 342 2 gusting 5 12.8
2020-Jul-09 21:26 347 2 gusting 6 12.8
2020-Jul-09 21:21 342 4 gusting 6 12.8
2020-Jul-09 21:17 342 2 gusting 5 12.8
2020-Jul-09 21:10 355 2 gusting 5 12.8
2020-Jul-09 21:05 319 3 gusting 5 12.8
2020-Jul-09 21:02 334 2 gusting 8 13.3
2020-Jul-09 20:55 346 2 gusting 8 12.8
2020-Jul-09 20:51 355 1 gusting 4 13.3
2020-Jul-09 20:46 321 1 gusting 6 13.3
2020-Jul-09 20:41 355 2 gusting 6 13.3
2020-Jul-09 20:31 339 2 gusting 7 13.3
2020-Jul-09 20:25 320 4 gusting 7 13.3
2020-Jul-09 20:20 355 3 gusting 8 13.3
2020-Jul-09 20:17 355 5 gusting 11 13.3
2020-Jul-09 20:10 336 6 gusting 11 13.9
2020-Jul-09 20:05 005 5 gusting 8 13.9
2020-Jul-09 20:01 351 4 gusting 8 13.9
2020-Jul-09 19:55 355 5 gusting 11 13.9
2020-Jul-09 19:50 333 5 gusting 11 13.9
2020-Jul-09 19:46 355 6 gusting 10 14.4
2020-Jul-09 19:40 348 6 gusting 10 14.4
2020-Jul-09 19:31 016 4 gusting 10 14.4
2020-Jul-09 19:25 349 8 gusting 10 14.4
2020-Jul-09 19:20 355 4 gusting 10 14.4
2020-Jul-09 19:16 355 6 gusting 10 15.0
2020-Jul-09 19:10 011 4 gusting 10 15.0
2020-Jul-09 19:05 012 2 gusting 10 15.0
2020-Jul-09 19:01 009 1 gusting 8 15.0
2020-Jul-09 18:56 355 4 gusting 8 15.0
2020-Jul-09 18:50 009 4 gusting 10 15.0
2020-Jul-09 18:46 014 1 gusting 10 15.0
2020-Jul-09 18:40 355 3 gusting 8 15.0
2020-Jul-09 18:31 360 4 gusting 9 15.0
2020-Jul-09 18:25 024 4 gusting 9 15.6
2020-Jul-09 18:20 355 2 gusting 8 15.0
2020-Jul-09 18:16 024 3 gusting 8 15.0
2020-Jul-09 18:10 342 5 gusting 8 15.0
2020-Jul-09 18:05 013 2 gusting 13 15.0
2020-Jul-09 18:01 350 7 gusting 12 15.0
2020-Jul-09 17:55 340 4 gusting 8 15.6
2020-Jul-09 17:50 355 5 gusting 11 15.0
2020-Jul-09 17:46 348 6 gusting 11 15.0
2020-Jul-09 17:40 019 6 gusting 12 15.6
2020-Jul-09 17:31 015 2 gusting 10 15.6
2020-Jul-09 17:25 350 5 gusting 10 15.6
2020-Jul-09 17:21 044 3 gusting 9 15.6
2020-Jul-09 17:16 350 6 gusting 11 15.6
2020-Jul-09 17:10 024 2 gusting 11 15.6
2020-Jul-09 17:05 346 5 gusting 9 15.6
2020-Jul-09 17:01 011 3 gusting 11 15.6
2020-Jul-09 16:55 340 7 gusting 13 15.6
2020-Jul-09 16:50 355 6 gusting 13 15.6
2020-Jul-09 16:46 021 2 gusting 11 15.6
2020-Jul-09 16:40 009 8 gusting 11 15.6
2020-Jul-09 16:31 348 5 gusting 11 15.6
2020-Jul-09 16:25 026 6 gusting 11 15.6
2020-Jul-09 16:20 355 4 gusting 11 15.6
2020-Jul-09 16:16 009 7 gusting 11 15.6
2020-Jul-09 16:05 009 2 gusting 8 15.6
2020-Jul-09 16:00 009 2 gusting 8 15.0
2020-Jul-09 15:55 026 3 gusting 7 15.0
2020-Jul-09 15:50 012 2 gusting 7 15.0
2020-Jul-09 15:46 029 2 gusting 5 15.6
2020-Jul-09 15:41 013 2 gusting 6 15.6
2020-Jul-09 15:31 005 2 gusting 5 15.0
2020-Jul-09 15:25 019 2 gusting 5 15.0
2020-Jul-09 15:21 015 3 gusting 7 15.0
2020-Jul-09 15:15 027 3 gusting 6 15.0
2020-Jul-09 15:10 005 3 gusting 6 15.0
2020-Jul-09 15:06 027 3 gusting 8 15.0
2020-Jul-09 15:00 355 3 gusting 9 15.0
2020-Jul-09 14:55 014 3 gusting 9 15.6
2020-Jul-09 14:50 005 4 gusting 8 15.6
2020-Jul-09 14:46 360 2 gusting 7 15.0
2020-Jul-09 14:40 355 6 gusting 10 14.4
2020-Jul-09 14:31 017 2 gusting 6 14.4
2020-Jul-09 14:25 355 1 gusting 6 15.0
2020-Jul-09 14:20 015 2 gusting 5 15.0
2020-Jul-09 14:16 005 3 gusting 6 15.6
2020-Jul-09 14:10 011 2 gusting 9 15.6
2020-Jul-09 14:05 015 4 gusting 9 15.6
2020-Jul-09 14:01 034 3 gusting 9 15.6
2020-Jul-09 13:55 025 3 gusting 8 15.6
2020-Jul-09 13:50 019 3 gusting 6 16.1
2020-Jul-09 13:45 036 3 gusting 5 16.1
2020-Jul-09 13:40 017 2 gusting 5 16.1
2020-Jul-09 13:30 005 1 gusting 4 16.1
2020-Jul-09 13:25 013 1 gusting 3 16.1
2020-Jul-09 13:20 017 1 gusting 3 16.1
2020-Jul-09 13:15 018 1 gusting 3 16.1
2020-Jul-09 13:10 013 1 gusting 3 15.6
2020-Jul-09 13:05 019 1 gusting 6 15.6
2020-Jul-09 13:00 005 2 gusting 6 15.6
2020-Jul-09 12:55 355 1 gusting 3 15.6
2020-Jul-09 12:50 024 1 gusting 4 15.6
2020-Jul-09 12:45 360 1 gusting 4 15.6
2020-Jul-09 12:40 012 1 gusting 6 15.6
2020-Jul-09 12:30 355 1 gusting 5 15.6
2020-Jul-09 12:25 360 1 gusting 7 15.6
2020-Jul-09 12:20 005 1 gusting 7 15.0
2020-Jul-09 12:15 350 3 gusting 7 15.0
2020-Jul-09 12:10 360 3 gusting 6 15.6
2020-Jul-09 12:00 013 1 gusting 5 15.6
2020-Jul-09 11:55 015 1 gusting 5 15.6
2020-Jul-09 11:50 355 1 gusting 6 15.0
2020-Jul-09 11:45 355 3 gusting 7 15.0
2020-Jul-09 11:40 355 2 gusting 7 15.0
2020-Jul-09 11:30 355 2 gusting 7 15.0
2020-Jul-09 11:20 013 1 gusting 6 14.4
2020-Jul-09 11:15 355 3 gusting 6 14.4
2020-Jul-09 11:10 351 2 gusting 6 13.9
2020-Jul-09 11:00 350 1 gusting 5 13.9
2020-Jul-09 10:55 344 3 gusting 6 13.9
2020-Jul-09 10:50 355 2 gusting 6 13.9
2020-Jul-09 10:45 355 1 gusting 5 13.9
2020-Jul-09 10:30 360 2 gusting 6 14.4
2020-Jul-09 10:25 005 2 gusting 8 14.4
2020-Jul-09 10:20 355 4 gusting 8 14.4
2020-Jul-09 10:15 013 1 gusting 5 14.4
2020-Jul-09 10:05 355 1 gusting 3 14.4
2020-Jul-09 10:00 005 1 gusting 3 14.4
2020-Jul-09 09:50 355 2 gusting 5 13.9
2020-Jul-09 09:46 360 1 gusting 6 13.9
2020-Jul-09 09:41 355 1 gusting 6 13.3
2020-Jul-09 09:31 355 2 gusting 6 13.3
2020-Jul-09 09:25 345 1 gusting 4 13.3
2020-Jul-09 09:21 355 2 gusting 6 13.3
2020-Jul-09 09:17 355 1 gusting 6 13.3
2020-Jul-09 09:11 360 3 gusting 6 13.3
2020-Jul-09 09:06 355 3 gusting 5 13.3
2020-Jul-09 09:01 355 2 gusting 7 13.3
2020-Jul-09 08:55 348 2 gusting 7 13.3
2020-Jul-09 08:50 009 3 gusting 7 13.3
2020-Jul-09 08:46 360 5 gusting 8 13.3
2020-Jul-09 08:41 350 3 gusting 8 13.3
2020-Jul-09 08:31 350 0 gusting 6 13.3
2020-Jul-09 08:25 355 1 gusting 7 12.8
2020-Jul-09 08:20 350 3 gusting 6 13.3
2020-Jul-09 08:16 355 2 gusting 5 12.8
2020-Jul-09 08:11 005 2 gusting 6 12.8
2020-Jul-09 08:05 011 1 gusting 6 12.8
2020-Jul-09 08:02 355 1 gusting 5 12.8
2020-Jul-09 07:55 012 1 gusting 4 12.8
2020-Jul-09 07:50 360 12.8
2020-Jul-09 07:45 031 1 gusting 6 12.8
2020-Jul-09 07:40 032 1 gusting 6 12.8
2020-Jul-09 07:32 066 1 gusting 5 12.2
2020-Jul-09 07:25 035 1 gusting 4 12.2
2020-Jul-09 07:20 053 0 gusting 4 11.7
2020-Jul-09 07:17 052 11.7
2020-Jul-09 07:10 055 0 gusting 4 11.7
2020-Jul-09 07:06 056 1 gusting 4 11.1
2020-Jul-09 07:01 064 1 gusting 4 11.1
2020-Jul-09 06:55 065 10.6
2020-Jul-09 06:50 063 1 gusting 4 10.6
2020-Jul-09 06:46 039 10.0
2020-Jul-09 06:40 074 1 gusting 4 10.0
2020-Jul-09 06:31 051 1 gusting 3 10.0
2020-Jul-09 06:25 078 1 gusting 3 10.0
2020-Jul-09 06:20 084 0 gusting 3 9.4
2020-Jul-09 06:15 048 9.4
2020-Jul-09 06:10 055 1 gusting 4 9.4
2020-Jul-09 06:05 037 8.9
2020-Jul-09 06:01 087 8.9
2020-Jul-09 05:55 088 8.9
2020-Jul-09 05:50 086 8.9
2020-Jul-09 05:45 086 8.9
2020-Jul-09 05:40 086 8.9
2020-Jul-09 05:31 086 8.9
2020-Jul-09 05:25 086 8.9
2020-Jul-09 05:20 086 8.9
2020-Jul-09 05:15 086 8.9
2020-Jul-09 05:10 086 8.9
2020-Jul-09 05:05 086 8.9
2020-Jul-09 05:00 086 8.9
2020-Jul-09 04:55 086 8.9
2020-Jul-09 04:50 086 8.9
2020-Jul-09 04:46 086 8.9
2020-Jul-09 04:40 085 8.9
2020-Jul-09 04:31 085 8.9
2020-Jul-09 04:25 085 8.9
2020-Jul-09 04:20 085 8.9
2020-Jul-09 04:15 085 8.9
2020-Jul-09 04:10 085 8.9
2020-Jul-09 04:05 085 8.9
2020-Jul-09 04:00 085 0 gusting 3 8.9
2020-Jul-09 03:55 107 0 gusting 3 8.9
2020-Jul-09 03:50 057 8.9
2020-Jul-09 03:45 059 8.9
2020-Jul-09 03:40 057 8.9
2020-Jul-09 03:31 058 8.9
2020-Jul-09 03:25 058 8.9
2020-Jul-09 03:20 039 0 gusting 4 8.9
2020-Jul-09 03:15 082 1 gusting 3 8.9
2020-Jul-09 03:10 086 1 gusting 3 8.9
2020-Jul-09 03:05 071 8.3
2020-Jul-09 03:01 051 8.3
2020-Jul-09 02:55 048 8.9
2020-Jul-09 02:50 048 8.9
2020-Jul-09 02:45 048 8.9
2020-Jul-09 02:40 048 8.9
2020-Jul-09 02:31 048 9.4
2020-Jul-09 02:25 055 0 gusting 2 9.4
2020-Jul-09 02:20 028 9.4
2020-Jul-09 02:15 028 9.4
2020-Jul-09 02:10 071 1 gusting 4 9.4
2020-Jul-09 02:05 051 0 gusting 5 9.4
2020-Jul-09 02:00 041 1 gusting 5 9.4
2020-Jul-09 01:55 069 0 gusting 4 9.4
2020-Jul-09 01:50 080 2 gusting 5 9.4
2020-Jul-09 01:45 036 1 gusting 5 9.4
2020-Jul-09 01:40 041 1 gusting 5 9.4
2020-Jul-09 01:31 070 0 gusting 5 9.4
2020-Jul-09 01:25 063 1 gusting 3 9.4
2020-Jul-09 01:20 061 0 gusting 3 9.4
2020-Jul-09 01:15 092 1 gusting 4 10.0
2020-Jul-09 01:10 084 1 gusting 6 10.0
2020-Jul-09 01:05 071 2 gusting 6 10.0
2020-Jul-09 01:00 072 2 gusting 5 10.0
2020-Jul-09 00:55 076 3 gusting 6 10.0
2020-Jul-09 00:50 034 3 gusting 6 10.0
2020-Jul-09 00:46 078 2 gusting 6 10.0
2020-Jul-09 00:40 086 1 gusting 5 10.0
2020-Jul-09 00:30 067 1 gusting 4 10.0
2020-Jul-09 00:25 031 1 gusting 5 10.0
2020-Jul-09 00:20 046 2 gusting 6 10.0
2020-Jul-09 00:15 071 1 gusting 4 10.0
2020-Jul-09 00:10 074 1 gusting 7 10.6
2020-Jul-09 00:05 009 3 gusting 7 10.6
2020-Jul-09 00:00 036 1 gusting 7 10.6
2020-Jul-08 23:55 032 2 gusting 7 10.6
2020-Jul-08 23:50 067 3 gusting 7 10.6
2020-Jul-08 23:45 050 3 gusting 6 10.6
2020-Jul-08 23:40 046 1 gusting 4 10.0
2020-Jul-08 23:30 059 1 gusting 7 10.0
2020-Jul-08 23:25 037 2 gusting 7 10.0
2020-Jul-08 23:20 056 2 gusting 5 10.0
2020-Jul-08 23:15 056 1 gusting 5 10.0
2020-Jul-08 23:10 036 2 gusting 4 10.6
2020-Jul-08 23:00 076 2 gusting 6 10.6